Location: Palau
(42.3086°N, 3.1507°E)
Time: 20:26:46
(UTC+00:00)

Spot 4 Rocket - Pass Details

Date: 26 May 2020
Orbit: 776 x 782 km, 98.7° (Epoch: 04 July)

Event Time Altitude Azimuth Distance (km) Brightness Sun altitude
Rises 03:21:12 0° 8° (N) 3,269 8.1 -9.2°
Reaches altitude 10° 03:23:35 10° 3° (N) 2,336 7.2 -8.9°
Maximum altitude 03:28:32 51° 289° (WNW) 977 4.4 -8.2°
Drops below altitude 10° 03:33:28 10° 215° (SW) 2,318 5.9 -7.4°
Enters shadow 03:34:03 - 213° (SSW) 2,546 6.1 -7.4°
